• In Uzbekistan
  • List of Countries
  • For 7 days
  • Water Temperature
  • Satellite Maps
  • Weather Map
  • Weather Widgets
  • user-avatar
    Login

    Hourly Weather Rozdollya

    Today, 23 February, Friday

    Time Temperature Precipitation Wind Pressure Humidity
    00:00 -4°C° 0.1 mm 6 mps 762 mmHg 80%
    01:00 -4°C° 0.1 mm 6 mps 761 mmHg 81%
    02:00 -5°C° 0.1 mm 6 mps 761 mmHg 82%
    03:00 -5°C° 0.4 mm 6 mps 761 mmHg 84%
    04:00 -5°C° 0.4 mm 6 mps 761 mmHg 86%
    05:00 -5°C° 0.4 mm 6 mps 761 mmHg 87%
    06:00 -6°C° 0.6 mm 6 mps 761 mmHg 88%
    07:00 -6°C° 0.6 mm 6 mps 761 mmHg 89%
    08:00 -5°C° 0 mm 6 mps 761 mmHg 89%
    09:00 -5°C° 0.4 mm 6 mps 761 mmHg 88%
    10:00 -5°C° 0.4 mm 6 mps 761 mmHg 88%
    11:00 -5°C° 0.4 mm 5 mps 761 mmHg 87%
    12:00 -4°C° 0.1 mm 5 mps 761 mmHg 86%
    13:00 -4°C° 0.1 mm 5 mps 761 mmHg 84%
    14:00 -2°C° 0.1 mm 5 mps 761 mmHg 83%
    15:00 -2°C° 0 mm 5 mps 761 mmHg 83%
    16:00 -4°C° 0 mm 5 mps 761 mmHg 82%
    17:00 -3°C° 0 mm 4 mps 761 mmHg 82%
    18:00 -3°C° 0 mm 4 mps 761 mmHg 83%
    19:00 -3°C° 0 mm 4 mps 761 mmHg 83%
    20:00 -5°C° 0 mm 5 mps 761 mmHg 84%
    21:00 -5°C° 0 mm 5 mps 761 mmHg 84%
    22:00 -5°C° 0 mm 5 mps 761 mmHg 84%
    23:00 -6°C° 0 mm 5 mps 761 mmHg 84%

    Tomorrow, 24 February, Saturday

    Time Temperature Precipitation Wind Pressure Humidity
    00:00 -5°C° 0 mm 4 mps 761 mmHg 84%
    01:00 -5°C° 0 mm 4 mps 761 mmHg 84%
    02:00 -5°C° 0 mm 4 mps 760 mmHg 85%
    03:00 -5°C° 0 mm 4 mps 760 mmHg 85%
    04:00 -5°C° 0 mm 4 mps 760 mmHg 86%
    05:00 -5°C° 0 mm 4 mps 760 mmHg 87%
    06:00 -5°C° 0.1 mm 4 mps 759 mmHg 87%
    07:00 -5°C° 0.1 mm 4 mps 759 mmHg 87%
    08:00 -5°C° 0.1 mm 4 mps 759 mmHg 88%
    09:00 -5°C° 0.1 mm 4 mps 759 mmHg 86%
    10:00 -4°C° 0.1 mm 4 mps 759 mmHg 85%
    11:00 -4°C° 0.1 mm 4 mps 759 mmHg 83%
    12:00 -4°C° 0 mm 4 mps 759 mmHg 82%
    13:00 -2°C° 0 mm 3 mps 758 mmHg 81%
    14:00 -2°C° 0 mm 3 mps 758 mmHg 80%
    15:00 -2°C° 0 mm 3 mps 758 mmHg 81%
    16:00 -2°C° 0 mm 3 mps 758 mmHg 81%
    17:00 -4°C° 0 mm 3 mps 758 mmHg 82%
    18:00 -4°C° 0 mm 3 mps 758 mmHg 84%
    19:00 -4°C° 0 mm 3 mps 758 mmHg 86%
    20:00 -5°C° 0 mm 3 mps 758 mmHg 87%
    21:00 -5°C° 0 mm 3 mps 758 mmHg 87%
    22:00 -5°C° 0 mm 4 mps 758 mmHg 86%
    23:00 -5°C° 0 mm 4 mps 758 mmHg 86%

    Day after tomorrow, 25 February, Sunday

    Time Temperature Precipitation Wind Pressure Humidity
    00:00 -5°C° 0 mm 4 mps 758 mmHg 86%
    01:00 -7°C° 0 mm 4 mps 758 mmHg 85%
    02:00 -7°C° 0 mm 4 mps 758 mmHg 85%
    03:00 -7°C° 0 mm 5 mps 758 mmHg 84%
    04:00 -7°C° 0 mm 5 mps 758 mmHg 83%
    05:00 -8°C° 0 mm 5 mps 758 mmHg 82%
    06:00 -8°C° 0 mm 5 mps 758 mmHg 81%
    07:00 -9°C° 0 mm 6 mps 759 mmHg 79%
    08:00 -9°C° 0 mm 6 mps 759 mmHg 78%
    09:00 -7°C° 0 mm 5 mps 759 mmHg 75%
    10:00 -7°C° 0 mm 5 mps 759 mmHg 73%
    11:00 -6°C° 0 mm 5 mps 759 mmHg 70%
    12:00 -6°C° 0 mm 5 mps 759 mmHg 68%
    13:00 -4°C° 0 mm 4 mps 759 mmHg 66%
    14:00 -3°C° 0 mm 4 mps 759 mmHg 63%
    15:00 -4°C° 0 mm 4 mps 760 mmHg 65%
    16:00 -5°C° 0 mm 4 mps 760 mmHg 66%
    17:00 -6°C° 0 mm 5 mps 760 mmHg 68%
    18:00 -7°C° 0 mm 5 mps 760 mmHg 70%
    19:00 -7°C° 0 mm 5 mps 761 mmHg 71%
    20:00 -8°C° 0 mm 5 mps 761 mmHg 73%
    21:00 -8°C° 0 mm 5 mps 761 mmHg 73%
    22:00 -8°C° 0 mm 5 mps 762 mmHg 73%
    23:00 -10°C° 0 mm 5 mps 762 mmHg 73%

    26 February, Monday

    Time Temperature Precipitation Wind Pressure Humidity
    00:00 -10°C° 0 mm 5 mps 762 mmHg 73%
    01:00 -10°C° 0 mm 5 mps 762 mmHg 72%
    02:00 -10°C° 0 mm 5 mps 762 mmHg 72%
    03:00 -11°C° 0 mm 5 mps 763 mmHg 72%
    04:00 -11°C° 0 mm 5 mps 763 mmHg 72%
    05:00 -11°C° 0 mm 5 mps 763 mmHg 71%
    06:00 -11°C° 0 mm 5 mps 763 mmHg 71%
    07:00 -11°C° 0 mm 5 mps 764 mmHg 70%
    08:00 -11°C° 0 mm 5 mps 764 mmHg 70%
    09:00 -11°C° 0 mm 5 mps 764 mmHg 67%
    10:00 -10°C° 0 mm 5 mps 764 mmHg 63%
    11:00 -8°C° 0 mm 5 mps 764 mmHg 60%
    12:00 -7°C° 0 mm 5 mps 764 mmHg 57%
    13:00 -7°C° 0 mm 5 mps 763 mmHg 55%
    14:00 -6°C° 0 mm 5 mps 763 mmHg 53%
    15:00 -6°C° 0 mm 5 mps 763 mmHg 54%
    16:00 -7°C° 0 mm 5 mps 763 mmHg 55%
    17:00 -8°C° 0 mm 6 mps 763 mmHg 56%
    18:00 -9°C° 0 mm 6 mps 763 mmHg 58%
    19:00 -9°C° 0 mm 6 mps 764 mmHg 61%
    20:00 -9°C° 0 mm 6 mps 764 mmHg 63%
    21:00 -11°C° 0 mm 7 mps 763 mmHg 64%
    22:00 -11°C° 0 mm 7 mps 763 mmHg 66%
    23:00 -11°C° 0 mm 7 mps 763 mmHg 68%

    27 February, Tuesday

    Time Temperature Precipitation Wind Pressure Humidity
    00:00 -12°C° 0 mm 7 mps 763 mmHg 68%
    01:00 -12°C° 0 mm 7 mps 762 mmHg 69%
    02:00 -12°C° 0 mm 8 mps 762 mmHg 69%
    03:00 -13°C° 0 mm 8 mps 761 mmHg 69%
    04:00 -13°C° 0 mm 8 mps 761 mmHg 68%
    05:00 -14°C° 0 mm 9 mps 760 mmHg 68%
    06:00 -14°C° 0 mm 9 mps 760 mmHg 67%
    07:00 -14°C° 0 mm 9 mps 760 mmHg 66%
    08:00 -12°C° 0 mm 9 mps 760 mmHg 65%
    09:00 -11°C° 0 mm 9 mps 760 mmHg 63%
    10:00 -10°C° 0 mm 10 mps 759 mmHg 60%
    11:00 -9°C° 0 mm 10 mps 759 mmHg 58%
    12:00 -9°C° 0 mm 10 mps 758 mmHg 60%
    13:00 -8°C° 0 mm 10 mps 758 mmHg 63%
    14:00 -8°C° 0 mm 9 mps 757 mmHg 66%
    15:00 -8°C° 0.1 mm 9 mps 757 mmHg 70%
    16:00 -8°C° 0.1 mm 9 mps 757 mmHg 74%
    17:00 -8°C° 0.1 mm 9 mps 757 mmHg 78%
    18:00 -8°C° 0.2 mm 9 mps 757 mmHg 80%
    19:00 -8°C° 0.2 mm 9 mps 757 mmHg 83%
    20:00 -7°C° 0.2 mm 8 mps 757 mmHg 86%
    21:00 -7°C° 0.9 mm 8 mps 757 mmHg 88%
    22:00 -7°C° 0.9 mm 8 mps 756 mmHg 91%
    23:00 -7°C° 0.9 mm 8 mps 756 mmHg 93%

    28 February, Wednesday

    Time Temperature Precipitation Wind Pressure Humidity
    00:00 -6°C° 0.2 mm 7 mps 756 mmHg 93%
    01:00 -5°C° 0.2 mm 6 mps 756 mmHg 92%
    02:00 -5°C° 0.2 mm 6 mps 756 mmHg 92%
    03:00 -5°C° 0.1 mm 6 mps 756 mmHg 92%
    04:00 -5°C° 0.1 mm 6 mps 756 mmHg 92%
    05:00 -5°C° 0.1 mm 5 mps 757 mmHg 92%
    06:00 -5°C° 0 mm 5 mps 757 mmHg 92%
    07:00 -5°C° 0 mm 5 mps 757 mmHg 92%
    08:00 -5°C° 0 mm 5 mps 757 mmHg 92%
    09:00 -5°C° 0 mm 5 mps 757 mmHg 92%
    10:00 -4°C° 0 mm 5 mps 757 mmHg 92%
    11:00 -2°C° 0 mm 4 mps 757 mmHg 92%
    12:00 -2°C° 0 mm 5 mps 757 mmHg 92%
    13:00 -1°C° 0 mm 5 mps 757 mmHg 93%
    14:00 -1°C° 0 mm 5 mps 756 mmHg 93%
    15:00 -1°C° 0.3 mm 5 mps 756 mmHg 94%
    16:00 -1°C° 0.3 mm 5 mps 755 mmHg 95%
    17:00 -1°C° 0.3 mm 5 mps 755 mmHg 96%
    18:00 -1°C° 0.6 mm 5 mps 754 mmHg 96%
    19:00 0°C° 0.6 mm 5 mps 754 mmHg 97%
    20:00 0°C° 0.6 mm 5 mps 753 mmHg 97%
    21:00 +1°C° 1.3 mm 6 mps 752 mmHg 97%
    22:00 +1°C° 1.3 mm 6 mps 752 mmHg 97%
    23:00 +1°C° 1.3 mm 6 mps 751 mmHg 98%
    Show more